Home > Weather > Freehold > Past weeks

Flag for USA Past Weather in Freehold, New Jersey, USA — Yesterday and Last 2 Weeks

Now
81 °F

Sunny.


Feels Like: 84 °F
Forecast: 67 / 87 °F
Wind: 12 mph from South

Location: Belmar-Farmdale

Current Time: May 29, 2016 at 5:24:37 PM

Latest Report: May 29, 2016 at 4:56 PM


Visibility: 10 mi

Pressure: 30.09 "Hg

Humidity: 65%

Dew Point: 68 °F

Location of FreeholdLocation

Past Weather in Freehold — Graph

°F

Freehold Temperature Yesterday

Maximum temperature yesterday: 89 °F (at 12:56 PM)
Minimum temperature yesterday: 66 °F (at 5:56 AM)
Average temperature yesterday: 77 °F

High & Low Weather Summary for the Past Weeks

 TemperatureHumidityPressure
High89 °F (May 28, 12:56 PM)100% (May 18, 4:56 AM)30.29 "Hg (May 18, 4:56 AM)
Low39 °F (May 16, 5:56 AM)23% (May 25, 3:56 PM)29.64 "Hg (May 14, 5:56 PM)
Average63 °F64%30.06 "Hg
* Reported May 14 3:56 PM — May 29 3:56 PM, Freehold, Weather by CustomWeather, © 2016

Note: Actual official high and low records may vary slightly from our data, if they occured in-between our weather recording intervals... More about our weather records

Advertising

Freehold Weather History for the Previous 24 Hours

Scroll right to see more
 ConditionsComfort  
Time TempWeatherWind HumidityBarometerVisibility
3:56 PM
Sun, May 29
80 °FSunny.14 mph67%30.10 "Hg10 mi
2:56 PM80 °FSunny.17 mph62%30.12 "Hg10 mi
1:56 PM82 °FSunny.13 mph53%30.14 "Hg10 mi
12:56 PM83 °FSunny.8 mph50%30.14 "Hg10 mi
11:56 AM82 °FSunny.8 mph56%30.16 "Hg10 mi
10:56 AM81 °FSunny.5 mph47%30.16 "Hg10 mi
9:56 AM79 °FSunny.6 mph56%30.17 "Hg10 mi
8:56 AM76 °FSunny.9 mph62%30.18 "Hg10 mi
7:56 AM71 °FSunny.8 mph73%30.19 "Hg10 mi
6:56 AM66 °FSunny.6 mph75%30.19 "Hg10 mi
5:56 AM65 °FClear.5 mph70%30.17 "Hg10 mi
4:56 AM66 °FClear.5 mph65%30.16 "Hg10 mi
3:56 AM67 °FClear.7 mph59%30.16 "Hg10 mi
2:56 AM68 °FClear.8 mph51%30.17 "Hg10 mi
1:56 AM69 °FClear.5 mph45%30.17 "Hg10 mi
12:56 AM71 °FClear.7 mph39%30.17 "Hg10 mi
10:56 PM
Sat, May 28
74 °FClear.8 mph32%30.16 "Hg10 mi
9:56 PM76 °FClear.8 mph37%30.17 "Hg10 mi
8:56 PM77 °FSunny.8 mph48%30.14 "Hg10 mi
7:56 PM81 °FSunny.10 mph54%30.13 "Hg10 mi
6:56 PM84 °FSunny.9 mph53%30.12 "Hg10 mi
5:56 PM83 °FSunny.8 mph61%30.10 "Hg10 mi
Weather by CustomWeather, © 2016

See weather overviewHow to use our weather pages